Swanton, VT

12:05 AM EDT on September 29, 2016 (GMT -0400)
Franklin County State

Weather History for KFSO - October, 2011

Change the Weather History Date:

Saturday, October 15, 2011

  Actual Average (KPBG) Record (KPBG)
Temperature  
Mean Temperature 56 °F 48 °F  
Max Temperature 59 °F 57 °F 79 °F (1954)
Min Temperature 53 °F 38 °F 27 °F (1950)
Degree Days  
Heating Degree Days 9 17  
Month to date heating degree days 223  
Since 1 July heating degree days 458  
Cooling Degree Days 0 0  
Month to date cooling degree days 0  
Year to date cooling degree days 345  
Growing Degree Days 6 (Base 50)    
Moisture  
Dew Point 48 °F    
Average Humidity 80    
Maximum Humidity 100    
Minimum Humidity 59    
Precipitation  
Precipitation 0.00 in - 1.67 in (2010)
Month to date precipitation  
Year to date precipitation  
Sea Level Pressure  
Sea Level Pressure 29.30 in    
Wind  
Wind Speed 7 mph (SSW)    
Max Wind Speed 15 mph    
Max Gust Speed 25 mph    
Visibility 10 miles    
Events Rain    
T = Trace of Precipitation, MM = Missing Value Source: NWS Daily Summary

Daily Weather History Graph

Daily Weather History Graph

Search for Another Location

Airport or City:

Trip Planner

Search our weather history database for the weather conditions in past years. The results will help you decide how hot, cold, wet, or windy it might be!

Date:

Astronomy

Oct. 15, 2011 Rise Set
Actual Time 7:07 AM EDT 6:08 PM EDT
Civil Twilight 6:38 AM EDT 6:37 PM EDT
Nautical Twilight 6:04 AM EDT 7:11 PM EDT
Astronomical Twilight 5:30 AM EDT 7:45 PM EDT
Moon 7:51 PM EDT (10/15) 10:39 AM EDT (10/15)
Length of Visible Light 11h 59m
Length of Day
11h 00m
Waning Gibbous, 89% of the Moon is Illuminated
Oct 15
Waning Gibbous
Oct 19
Last Quarter
Oct 26
New
Nov 2
First Quarter
Nov 10
Full

Hourly Weather History & Observations

Time (EDT) Temp. Dew Point Humidity Pressure Visibility Wind Dir Wind Speed Gust Speed Precip Events Conditions
12:15 AM 59.0 °F 59.0 °F 100% 29.20 in 5.0 mi SW 4.6 mph - N/A   Drizzle
12:34 AM 59.0 °F 59.0 °F 100% 29.20 in 10.0 mi Calm Calm - N/A   Overcast
12:55 AM 57.2 °F 57.2 °F 100% 29.19 in 10.0 mi Calm Calm - N/A   Drizzle
1:15 AM 55.4 °F 55.4 °F 100% 29.19 in 10.0 mi SSW 3.5 mph - N/A   Overcast
1:34 AM 55.4 °F 55.4 °F 100% 29.19 in 10.0 mi SSW 5.8 mph - N/A Rain Light Rain
2:15 AM 55.4 °F 55.4 °F 100% 29.20 in 10.0 mi SW 8.1 mph - N/A   Drizzle
2:34 AM 55.4 °F 55.4 °F 100% 29.21 in 10.0 mi SSW 10.4 mph - N/A Rain Light Rain
2:55 AM 55.4 °F 55.4 °F 100% 29.21 in 10.0 mi SSW 9.2 mph - N/A Rain Rain
3:15 AM 55.4 °F 55.4 °F 100% 29.21 in 7.0 mi SSW 5.8 mph - N/A Rain Light Rain
3:35 AM 55.4 °F 55.4 °F 100% 29.21 in 10.0 mi SSW 8.1 mph - N/A Rain Rain
3:55 AM 55.4 °F 55.4 °F 100% 29.22 in 3.0 mi SSW 8.1 mph - N/A Rain Heavy Rain
4:15 AM 55.4 °F 55.4 °F 100% 29.23 in 7.0 mi SW 8.1 mph 16.1 mph N/A Rain Rain
4:34 AM 53.6 °F 53.6 °F 100% 29.24 in 10.0 mi SW 8.1 mph 17.3 mph N/A Rain Light Rain
4:55 AM 53.6 °F 51.8 °F 94% 29.25 in 10.0 mi SSW 6.9 mph - N/A Rain Rain
5:15 AM 53.6 °F 51.8 °F 94% 29.26 in 10.0 mi SSW 6.9 mph - N/A Rain Rain
5:34 AM 53.6 °F 51.8 °F 94% 29.26 in 7.0 mi SSW 5.8 mph - N/A Rain Rain
5:55 AM 53.6 °F 51.8 °F 94% 29.27 in 10.0 mi SSW 6.9 mph - N/A Rain Rain
6:14 AM 53.6 °F 51.8 °F 94% 29.28 in 10.0 mi SSW 6.9 mph - N/A Rain Rain
6:35 AM 53.6 °F 51.8 °F 94% 29.28 in 10.0 mi SSW 9.2 mph 18.4 mph N/A Rain Rain
6:55 AM 53.6 °F 51.8 °F 94% 29.29 in 10.0 mi SSW 4.6 mph - N/A Rain Light Rain
7:15 AM 53.6 °F 51.8 °F 94% 29.29 in 7.0 mi SSW 4.6 mph 19.6 mph N/A Rain Rain
7:35 AM 53.6 °F 50.0 °F 88% 29.30 in 10.0 mi SSW 8.1 mph 21.9 mph N/A Rain Light Rain
7:55 AM 53.6 °F 50.0 °F 88% 29.31 in 10.0 mi SW 8.1 mph 23.0 mph N/A Rain Light Rain
8:15 AM 53.6 °F 46.4 °F 77% 29.32 in 10.0 mi SW 12.7 mph 25.3 mph N/A Rain Light Rain
8:35 AM 53.6 °F 46.4 °F 77% 29.33 in 10.0 mi SW 10.4 mph 24.2 mph N/A Rain Light Rain
9:15 AM 53.6 °F 42.8 °F 67% 29.35 in 10.0 mi SSW 10.4 mph 21.9 mph N/A   Overcast
9:35 AM 53.6 °F 42.8 °F 67% 29.35 in 10.0 mi SW 12.7 mph 24.2 mph N/A   Overcast
9:54 AM 55.4 °F 42.8 °F 63% 29.35 in 10.0 mi SW 10.4 mph 18.4 mph N/A   Overcast
10:35 AM 55.4 °F 42.8 °F 63% 29.35 in 10.0 mi WSW 10.4 mph 19.6 mph N/A   Scattered Clouds
10:55 AM 55.4 °F 44.6 °F 67% 29.35 in 10.0 mi South 13.8 mph 20.7 mph N/A   Clear
11:15 AM 55.4 °F 44.6 °F 67% 29.35 in 10.0 mi South 12.7 mph 18.4 mph N/A   Mostly Cloudy
11:35 AM 59.0 °F 46.4 °F 63% 29.35 in 10.0 mi SSW 9.2 mph - N/A   Overcast
11:55 AM 59.0 °F 46.4 °F 63% 29.35 in 10.0 mi SSW 10.4 mph 21.9 mph N/A   Mostly Cloudy
12:35 PM 59.0 °F 44.6 °F 59% 29.35 in 10.0 mi South 15.0 mph 23.0 mph N/A   Mostly Cloudy
12:55 PM 53.6 °F 46.4 °F 77% 29.35 in 10.0 mi SSW 6.9 mph 17.3 mph N/A Rain Rain
1:35 PM 55.4 °F 48.2 °F 77% 29.34 in 10.0 mi SSW 10.4 mph 19.6 mph N/A   Mostly Cloudy
1:55 PM 55.4 °F 44.6 °F 67% 29.34 in 10.0 mi SSW 10.4 mph 24.2 mph N/A Rain Light Rain
2:15 PM 55.4 °F 44.6 °F 67% 29.33 in 10.0 mi South 10.4 mph 19.6 mph N/A   Overcast
2:35 PM 55.4 °F 44.6 °F 67% 29.33 in 10.0 mi SSW 12.7 mph 19.6 mph N/A   Mostly Cloudy
2:54 PM 55.4 °F 44.6 °F 67% 29.33 in 10.0 mi South 13.8 mph 19.6 mph N/A   Mostly Cloudy
3:15 PM 55.4 °F 44.6 °F 67% 29.33 in 10.0 mi SSW 10.4 mph 19.6 mph N/A   Scattered Clouds
3:35 PM 55.4 °F 44.6 °F 67% 29.34 in 10.0 mi South 9.2 mph 18.4 mph N/A   Scattered Clouds
3:54 PM 55.4 °F 44.6 °F 67% 29.33 in 10.0 mi SSW 9.2 mph - N/A Rain Light Rain
4:15 PM 55.4 °F 42.8 °F 63% 29.33 in 10.0 mi SSW 10.4 mph 18.4 mph N/A   Mostly Cloudy
4:35 PM 53.6 °F 44.6 °F 72% 29.34 in 10.0 mi South 10.4 mph 20.7 mph N/A   Mostly Cloudy
4:54 PM 53.6 °F 46.4 °F 77% 29.35 in 10.0 mi South 9.2 mph 17.3 mph N/A   Overcast
5:15 PM 53.6 °F 46.4 °F 77% 29.35 in 10.0 mi South 8.1 mph 16.1 mph N/A   Overcast
5:35 PM 53.6 °F 46.4 °F 77% 29.36 in 10.0 mi SW 9.2 mph - N/A   Overcast
5:54 PM 53.6 °F 42.8 °F 67% 29.36 in 10.0 mi SSW 9.2 mph 21.9 mph N/A   Mostly Cloudy
6:15 PM 53.6 °F 42.8 °F 67% 29.37 in 10.0 mi SSW 6.9 mph 16.1 mph N/A   Mostly Cloudy
6:34 PM 53.6 °F 41.0 °F 62% 29.38 in 10.0 mi SSW 9.2 mph 17.3 mph N/A   Overcast
6:55 PM 53.6 °F 41.0 °F 62% 29.38 in 10.0 mi SSW 10.4 mph 18.4 mph N/A   Overcast
7:15 PM 53.6 °F 41.0 °F 62% 29.39 in 10.0 mi SSW 12.7 mph 20.7 mph N/A   Overcast
7:35 PM 53.6 °F 41.0 °F 62% 29.39 in 10.0 mi SSW 9.2 mph 17.3 mph N/A   Overcast
7:55 PM 53.6 °F 42.8 °F 67% 29.39 in 10.0 mi South 6.9 mph - N/A   Overcast
8:15 PM 53.6 °F 42.8 °F 67% 29.39 in 10.0 mi South 10.4 mph 16.1 mph N/A   Overcast
8:35 PM 53.6 °F 42.8 °F 67% 29.39 in 10.0 mi South 8.1 mph - N/A   Overcast
8:55 PM 53.6 °F 44.6 °F 72% 29.39 in 10.0 mi South 9.2 mph 17.3 mph N/A   Overcast
9:14 PM 53.6 °F 44.6 °F 72% 29.39 in 10.0 mi South 12.7 mph 18.4 mph N/A   Overcast
9:35 PM 53.6 °F 44.6 °F 72% 29.40 in 10.0 mi SSW 8.1 mph 19.6 mph N/A   Overcast
9:55 PM 53.6 °F 42.8 °F 67% 29.40 in 10.0 mi SW 11.5 mph 21.9 mph N/A   Overcast
10:15 PM 53.6 °F 42.8 °F 67% 29.40 in 10.0 mi SSW 16.1 mph 27.6 mph N/A   Overcast
10:35 PM 53.6 °F 42.8 °F 67% 29.41 in 10.0 mi SW 11.5 mph 24.2 mph N/A   Overcast
10:55 PM 53.6 °F 42.8 °F 67% 29.41 in 10.0 mi SW 12.7 mph 23.0 mph N/A   Overcast
11:15 PM 53.6 °F 42.8 °F 67% 29.41 in 10.0 mi SW 15.0 mph 26.5 mph N/A   Overcast
11:35 PM 51.8 °F 41.0 °F 67% 29.42 in 10.0 mi SW 17.3 mph 26.5 mph N/A   Light Drizzle
11:55 PM 51.8 °F 41.0 °F 67% 29.43 in 10.0 mi SW 15.0 mph 29.9 mph N/A   Overcast